DECAYED
Showing default

FLOCK 4BE 26, 60484 (Decayed)

Orbit data source: Space-Track

FLOCK 4BE 26, 60484 was a payload satellite owned by Planet (US) in LEO that was launched on Fri, 16 Aug 2024 UTC via an FALCON 9 launch vehicle from the Air Force Western Test Range (AFWTR). Payload-class satellites include a variety of spacecraft equipped with specific instruments for various scientific and technological missions. These include communications satellites like Starlink; space stations such as the ISS; scientific satellites like the Hubble; Earth observation satellites from companies like Planet Labs, Umbra, and HawkEye 360; GPS; miniature CubeSats for education and research; and military/defense satellites.

Not visible in the next 10 days
Identifier
60484, 2024-149S
Orbit
Decayed
Country
Flag of USUS
Related business
Manufacturer
Planet
Mission
Decayed Commercial Imaging
Bus & Motor
CUBESAT 3U, Unknown motor
Mass
5.7 kg wet, 5.7 kg dry
Launch date (UTC)
2024-08-16 (2 years ago)
Launch vehicle
FALCON 9
Launch site
Air Force Western Test Range (AFWTR)
Object type
Payload
Rocket body
Debris
Shape & HBR
Box + 2 Pan, 1.0 m
Radar Cross Section
0.072 m², Medium (>0.1 m² and < 1m²)

Expand to show TLE details & history
Last TLE update: 1 month ago

TLE from 1 month ago
0 FLOCK 4BE 26
1 60484U 24149S   26237.90663054  .16640350  25605-5  25841-3 0  9996
2 60484  97.3233 329.0854 0012283 256.0845 103.9092 16.47737958113509
Epoch: 2026-08-25T21:45Z
TLE epoch observation values (Epoch: 2026-08-25T21:45:32.878Z)
Latitude
-0.00011°
Longitude
28.53117°
Altitude
150.499 km
Speed
7.815 km/s
True Right ascension
21h 56m 20s
True Declination
0° 00' 00"
Sunlit
Object was in full shadow at epoch
Visualization orbit readout
Latitude
Unknown
Longitude
Unknown
Altitude
Unknown
Speed
Unknown
Apparent Right ascension
Unknown
Apparent Declination
Unknown
Sunlit
N/A
Visualization observer readout
Local Sidereal Time
02:52:34
Azimuth
Unknown
Elevation
Unknown
Doppler factor
Unknown
Orbital elements
Apogee altitude
150.102 km
Perigee altitude
134.084 km
Semi-major axis
6,520.23 km
Eccentricity
0.00123
Inclination
97.3233°
RAAN
329.0854°
Arg. of periapsis
256.0845°
True anomaly
104.04578°
Mean anomaly
103.9092°
Eccentric anomaly
103.97749°
Mean motion
4.12239 °/min
Orbital period
87.33 mins
BSTAR
0.00025841
Loading maneuver chart data...
Computing Atmospheric mass density...
Loading historical data...
Loading historical data...
Loading historical data...
Loading historical data...
Loading historical data...
Loading historical data...
Loading historical data...

Documentation

Showing up to 5 results
|